| time (UTC) | temp C | wind direction | speed KPH | gust KPH | rain 1hr cm | rain 24hr cm | rain mn cm | humidity % | barometer mb |
| 20260902074121 | 23 | 98 | 3.2 | 9.7 | 0.00 | 0.00 | 0.00 | 52 | 1020.7 |
| 20260902073507 | 22 | 119 | 4.8 | 9.7 | 0.00 | 0.00 | 0.00 | 54 | 1020.7 |
| 20260902072508 | 22 | 123 | 4.8 | 9.7 | 0.00 | 0.00 | 0.00 | 55 | 1020.6 |
| 20260902071321 | 22 | 119 | 4.8 | 9.7 | 0.00 | 0.00 | 0.00 | 56 | 1020.4 |
| 20260902070507 | 21 | 120 | 3.2 | 8.0 | 0.00 | 0.00 | 0.00 | 57 | 1020.4 |
| 20260902065507 | 21 | 131 | 3.2 | 6.4 | 0.00 | 0.00 | 0.00 | 59 | 1020.7 |
| 20260902064121 | 21 | 159 | 3.2 | 6.4 | 0.00 | 0.00 | 0.00 | 57 | 1020.7 |
| 20260902062508 | 18 | 1 | 3.2 | 6.4 | 0.00 | 0.00 | 0.00 | 69 | 1020.7 |
| 20260902061121 | 17 | 1 | 8.0 | 11.3 | 0.00 | 0.00 | 0.00 | 71 | 1020.7 |
| 20260902060508 | 17 | 347 | 9.7 | 12.9 | 0.00 | 0.00 | 0.00 | 73 | 1020.8 |
| 20260902055508 | 16 | 349 | 9.7 | 14.5 | 0.00 | 0.00 | 0.00 | 73 | 1020.8 |
| 20260902054121 | 16 | 349 | 9.7 | 16.1 | 0.00 | 0.00 | 0.00 | 73 | 1020.8 |
| 20260902053508 | 16 | 314 | 8.0 | 12.9 | 0.00 | 0.00 | 0.00 | 73 | 1020.8 |
| 20260902052507 | 16 | 339 | 9.7 | 12.9 | 0.00 | 0.00 | 0.00 | 72 | 1020.8 |
| 20260902051121 | 16 | 334 | 8.0 | 12.9 | 0.00 | 0.00 | 0.00 | 71 | 1020.8 |
| 20260902050507 | 16 | 349 | 11.3 | 12.9 | 0.00 | 0.00 | 0.00 | 68 | 1020.8 |
| 20260902045507 | 16 | 342 | 9.7 | 12.9 | 0.00 | 0.00 | 0.00 | 67 | 1020.8 |
| 20260902044121 | 16 | 341 | 9.7 | 14.5 | 0.00 | 0.00 | 0.00 | 67 | 1020.8 |
| 20260902043508 | 16 | 336 | 8.0 | 14.5 | 0.00 | 0.00 | 0.00 | 68 | 1020.8 |
| 20260902042508 | 16 | 282 | 4.8 | 6.4 | 0.00 | 0.00 | 0.00 | 70 | 1020.8 |
| 20260902041121 | 17 | 277 | 4.8 | 8.0 | 0.00 | 0.00 | 0.00 | 69 | 1021.1 |
| 20260902040507 | 17 | 4 | 8.0 | 9.7 | 0.00 | 0.00 | 0.00 | 66 | 1021.0 |
| 20260902035508 | 17 | 341 | 6.4 | 9.7 | 0.00 | 0.00 | 0.00 | 67 | 1021.1 |
| 20260902034508 | 17 | 297 | 4.8 | 8.0 | 0.00 | 0.00 | 0.00 | 67 | 1021.0 |
| 20260902033507 | 17 | 289 | 6.4 | 9.7 | 0.00 | 0.00 | 0.00 | 66 | 1020.8 |
| 20260902032507 | 17 | 337 | 9.7 | 14.5 | 0.00 | 0.00 | 0.00 | 65 | 1020.8 |
| 20260902031507 | 17 | 343 | 9.7 | 14.5 | 0.00 | 0.00 | 0.00 | 65 | 1020.7 |
| 20260902030508 | 17 | 339 | 9.7 | 14.5 | 0.00 | 0.00 | 0.00 | 65 | 1020.8 |
| 20260902025507 | 17 | 344 | 12.9 | 14.5 | 0.00 | 0.00 | 0.00 | 64 | 1020.7 |
| 20260902024508 | 17 | 331 | 9.7 | 12.9 | 0.00 | 0.00 | 0.00 | 65 | 1020.6 |
| 20260902023508 | 17 | 328 | 8.0 | 11.3 | 0.00 | 0.00 | 0.00 | 65 | 1020.7 |
| 20260902022507 | 17 | 337 | 9.7 | 14.5 | 0.00 | 0.00 | 0.00 | 66 | 1020.6 |
| 20260902021507 | 17 | 339 | 11.3 | 14.5 | 0.00 | 0.00 | 0.00 | 66 | 1020.7 |
| 20260902015508 | 17 | 340 | 9.7 | 14.5 | 0.00 | 0.00 | 0.00 | 67 | 1020.8 |
| 20260902014508 | 16 | 331 | 6.4 | 12.9 | 0.00 | 0.00 | 0.00 | 68 | 1020.8 |
| 20260902013507 | 17 | 331 | 6.4 | 11.3 | 0.00 | 0.00 | 0.00 | 67 | 1020.8 |
| 20260902012508 | 17 | 336 | 8.0 | 11.3 | 0.00 | 0.00 | 0.00 | 68 | 1020.8 |
| 20260902011507 | 17 | 346 | 14.5 | 16.1 | 0.00 | 0.00 | 0.00 | 66 | 1020.8 |
| 20260902010508 | 17 | 342 | 8.0 | 14.5 | 0.00 | 0.00 | 0.00 | 65 | 1020.7 |
| 20260902005508 | 17 | 339 | 6.4 | 11.3 | 0.00 | 0.00 | 0.00 | 65 | 1020.7 |
| 20260901221121 | 20 | 355 | 17.7 | 19.3 | 0.00 | 0.56 | 0.00 | 57 | 1020.3 |
| 20260901220508 | 20 | 355 | 17.7 | 20.9 | 0.00 | 0.58 | 0.56 | 54 | 1020.3 |
| 20260901215508 | 20 | 355 | 17.7 | 19.3 | 0.00 | 0.61 | 0.56 | 56 | 1020.3 |
| 20260901214121 | 20 | 352 | 14.5 | 17.7 | 0.00 | 0.69 | 0.56 | 56 | 1020.2 |
| 20260901213508 | 21 | 352 | 16.1 | 17.7 | 0.00 | 0.79 | 0.56 | 52 | 1020.2 |
| 20260901212508 | 20 | 352 | 14.5 | 17.7 | 0.00 | 0.81 | 0.56 | 53 | 1020.2 |
| 20260901211121 | 21 | 353 | 12.9 | 16.1 | 0.00 | 0.84 | 0.56 | 54 | 1020.1 |
| 20260901210507 | 21 | 353 | 11.3 | 16.1 | 0.00 | 0.94 | 0.56 | 54 | 1020.0 |
| 20260901205508 | 21 | 347 | 9.7 | 14.5 | 0.00 | 0.99 | 0.56 | 54 | 1020.1 |
| 20260901204122 | 21 | 321 | 6.4 | 12.9 | 0.00 | 0.99 | 0.56 | 52 | 1020.0 |
| 20260901203508 | 21 | 323 | 8.0 | 12.9 | 0.00 | 0.99 | 0.56 | 54 | 1020.0 |
| 20260901202508 | 21 | 338 | 6.4 | 12.9 | 0.00 | 0.99 | 0.56 | 54 | 1019.9 |
| 20260901201121 | 21 | 312 | 6.4 | 12.9 | 0.00 | 0.99 | 0.56 | 54 | 1019.9 |
| 20260901200508 | 21 | 324 | 8.0 | 12.9 | 0.00 | 0.99 | 0.56 | 52 | 1019.8 |
| 20260901194122 | 21 | 335 | 11.3 | 19.3 | 0.00 | 0.99 | 0.56 | 51 | 1019.7 |
| 20260901193508 | 21 | 345 | 11.3 | 19.3 | 0.00 | 0.99 | 0.56 | 50 | 1019.8 |
| 20260901192508 | 21 | 320 | 6.4 | 12.9 | 0.00 | 0.99 | 0.56 | 54 | 1019.6 |
| 20260901191121 | 21 | 312 | 6.4 | 12.9 | 0.00 | 0.99 | 0.56 | 54 | 1019.6 |
| 20260901190507 | 21 | 305 | 8.0 | 14.5 | 0.00 | 0.99 | 0.56 | 55 | 1019.6 |
| 20260901185508 | 22 | 299 | 9.7 | 11.3 | 0.00 | 0.99 | 0.56 | 54 | 1019.3 |
| 20260901184121 | 22 | 297 | 11.3 | 12.9 | 0.00 | 0.99 | 0.56 | 52 | 1019.3 |
| 20260901183508 | 22 | 297 | 9.7 | 11.3 | 0.00 | 0.99 | 0.56 | 52 | 1019.2 |
| 20260901182508 | 22 | 301 | 8.0 | 11.3 | 0.00 | 0.99 | 0.56 | 50 | 1019.0 |
| 20260901181121 | 23 | 311 | 6.4 | 14.5 | 0.00 | 0.99 | 0.56 | 48 | 1018.9 |
| 20260901180508 | 23 | 326 | 8.0 | 12.9 | 0.00 | 0.99 | 0.56 | 47 | 1018.8 |
| 20260901175508 | 24 | 318 | 8.0 | 14.5 | 0.00 | 0.99 | 0.56 | 42 | 1018.6 |
| 20260901174121 | 25 | 317 | 9.7 | 14.5 | 0.00 | 0.99 | 0.56 | 36 | 1018.5 |
| 20260901173508 | 25 | 313 | 9.7 | 17.7 | 0.00 | 0.99 | 0.56 | 35 | 1018.5 |
| 20260901172508 | 25 | 318 | 9.7 | 20.9 | 0.00 | 0.99 | 0.56 | 34 | 1018.4 |
| 20260901171121 | 26 | 317 | 11.3 | 22.5 | 0.00 | 0.99 | 0.56 | 33 | 1018.3 |
| 20260901170507 | 26 | 314 | 11.3 | 20.9 | 0.00 | 0.99 | 0.56 | 32 | 1018.3 |
| 20260901165507 | 26 | 305 | 6.4 | 22.5 | 0.00 | 0.99 | 0.56 | 31 | 1018.3 |
| 20260901164121 | 27 | 296 | 11.3 | 24.1 | 0.00 | 0.99 | 0.56 | 31 | 1018.2 |
| 20260901163508 | 27 | 298 | 9.7 | 20.9 | 0.00 | 0.99 | 0.56 | 31 | 1018.1 |
| 20260901162508 | 27 | 308 | 16.1 | 27.4 | 0.00 | 0.99 | 0.56 | 30 | 1018.2 |
| 20260901161121 | 27 | 304 | 8.0 | 16.1 | 0.00 | 0.99 | 0.56 | 30 | 1018.2 |
| 20260901160507 | 27 | 284 | 12.9 | 24.1 | 0.00 | 0.99 | 0.56 | 31 | 1018.2 |
| 20260901155508 | 27 | 314 | 11.3 | 29.0 | 0.00 | 0.99 | 0.56 | 30 | 1018.1 |
| 20260901154121 | 27 | 311 | 14.5 | 27.4 | 0.00 | 0.99 | 0.56 | 31 | 1018.1 |
| 20260901153508 | 27 | 305 | 9.7 | 27.4 | 0.00 | 0.99 | 0.56 | 31 | 1018.1 |
| 20260901152508 | 27 | 327 | 12.9 | 30.6 | 0.00 | 0.99 | 0.56 | 31 | 1018.1 |
| 20260901151121 | 27 | 318 | 17.7 | 41.8 | 0.00 | 0.99 | 0.56 | 31 | 1018.2 |
| 20260901150508 | 27 | 309 | 16.1 | 33.8 | 0.00 | 0.99 | 0.56 | 30 | 1018.2 |
| 20260901145507 | 27 | 288 | 17.7 | 37.0 | 0.00 | 0.99 | 0.56 | 31 | 1018.2 |
| 20260901144121 | 27 | 294 | 24.1 | 38.6 | 0.00 | 0.99 | 0.56 | 29 | 1018.2 |
| 20260901143507 | 27 | 315 | 20.9 | 37.0 | 0.00 | 0.99 | 0.56 | 32 | 1018.3 |
| 20260901142508 | 27 | 299 | 9.7 | 25.7 | 0.00 | 0.99 | 0.56 | 31 | 1018.4 |
| 20260901141121 | 27 | 325 | 12.9 | 32.2 | 0.00 | 0.99 | 0.56 | 31 | 1018.3 |
| 20260901140507 | 27 | 323 | 9.7 | 24.1 | 0.00 | 0.99 | 0.56 | 33 | 1018.4 |
| 20260901135508 | 27 | 302 | 17.7 | 35.4 | 0.00 | 0.99 | 0.56 | 33 | 1018.5 |
| 20260901134121 | 27 | 293 | 17.7 | 30.6 | 0.00 | 0.99 | 0.56 | 32 | 1018.5 |
| 20260901133508 | 27 | 285 | 20.9 | 40.2 | 0.00 | 0.99 | 0.56 | 32 | 1018.7 |
| 20260901132508 | 27 | 302 | 17.7 | 33.8 | 0.00 | 0.99 | 0.56 | 32 | 1018.7 |
| 20260901131121 | 27 | 298 | 20.9 | 37.0 | 0.00 | 0.99 | 0.56 | 33 | 1018.9 |
| 20260901125508 | 26 | 294 | 24.1 | 43.5 | 0.00 | 0.99 | 0.56 | 34 | 1019.0 |
| 20260901124120 | 27 | 294 | 27.4 | 48.3 | 0.00 | 0.99 | 0.56 | 33 | 1019.2 |
| 20260901123507 | 26 | 296 | 20.9 | 40.2 | 0.00 | 0.99 | 0.56 | 35 | 1019.2 |
| 20260901122507 | 26 | 302 | 24.1 | 49.9 | 0.00 | 0.99 | 0.56 | 35 | 1019.3 |
| 20260901121120 | 27 | 293 | 20.9 | 38.6 | 0.00 | 0.99 | 0.56 | 36 | 1019.4 |
| 20260901120508 | 26 | 305 | 19.3 | 33.8 | 0.00 | 0.99 | 0.56 | 36 | 1019.4 |
| 20260901115508 | 26 | 294 | 24.1 | 43.5 | 0.00 | 0.99 | 0.56 | 36 | 1019.5 |
| 20260901114120 | 26 | 296 | 22.5 | 43.5 | 0.00 | 0.99 | 0.56 | 37 | 1019.6 |
| 20260901113508 | 26 | 311 | 19.3 | 37.0 | 0.00 | 0.99 | 0.56 | 38 | 1019.6 |
| 20260901112507 | 25 | 302 | 20.9 | 45.1 | 0.00 | 0.99 | 0.56 | 41 | 1019.7 |
| 20260901111121 | 26 | 320 | 17.7 | 33.8 | 0.00 | 0.99 | 0.56 | 41 | 1019.7 |
| 20260901110508 | 26 | 300 | 16.1 | 33.8 | 0.00 | 0.99 | 0.56 | 40 | 1019.6 |
| 20260901105507 | 25 | 290 | 19.3 | 45.1 | 0.00 | 0.99 | 0.56 | 40 | 1019.8 |
| 20260901104121 | 25 | 286 | 17.7 | 33.8 | 0.00 | 0.99 | 0.56 | 41 | 1019.7 |
| 20260901103507 | 26 | 297 | 25.7 | 46.7 | 0.00 | 0.99 | 0.56 | 41 | 1019.7 |
| 20260901102508 | 25 | 293 | 22.5 | 41.8 | 0.00 | 0.99 | 0.56 | 41 | 1019.7 |
| 20260901101121 | 25 | 296 | 24.1 | 41.8 | 0.00 | 0.99 | 0.56 | 41 | 1019.8 |
| 20260901100508 | 25 | 299 | 25.7 | 38.6 | 0.00 | 0.99 | 0.56 | 42 | 1019.9 |
| 20260901095508 | 25 | 292 | 20.9 | 38.6 | 0.00 | 0.99 | 0.56 | 41 | 1020.0 |
| 20260901094121 | 25 | 303 | 24.1 | 43.5 | 0.00 | 0.99 | 0.56 | 42 | 1020.0 |
| 20260901093508 | 24 | 304 | 25.7 | 45.1 | 0.00 | 0.99 | 0.56 | 43 | 1020.1 |
| 20260901092508 | 25 | 307 | 19.3 | 40.2 | 0.00 | 0.99 | 0.56 | 44 | 1020.2 |
| 20260901091120 | 23 | 304 | 19.3 | 41.8 | 0.00 | 0.99 | 0.56 | 44 | 1020.3 |
| 20260901090508 | 23 | 286 | 11.3 | 27.4 | 0.00 | 0.99 | 0.56 | 46 | 1020.3 |
| 20260901085506 | 23 | 285 | 12.9 | 25.7 | 0.00 | 0.99 | 0.56 | 49 | 1020.3 |
| 20260901084121 | 23 | 297 | 11.3 | 24.1 | 0.00 | 0.99 | 0.56 | 50 | 1020.3 |
| 20260901083508 | 23 | 285 | 12.9 | 25.7 | 0.00 | 0.99 | 0.56 | 50 | 1020.3 |
| 20260901082508 | 23 | 289 | 14.5 | 27.4 | 0.00 | 0.99 | 0.56 | 52 | 1020.2 |
| 20260901081508 | 22 | 283 | 16.1 | 30.6 | 0.00 | 0.99 | 0.56 | 54 | 1020.3 |
| 20260901080508 | 22 | 280 | 14.5 | 27.4 | 0.00 | 0.99 | 0.56 | 55 | 1020.3 |
| 20260901075508 | 22 | 280 | 14.5 | 27.4 | 0.00 | 0.99 | 0.56 | 54 | 1020.2 |